Weather History for KHKY - January, 2014

Change the Weather History Date:

Monday, January 27, 2014

  Actual Average Record
Temperature  
Mean Temperature 47 °F -  
Max Temperature 59 °F 48 °F 72 °F (1954)
Min Temperature 33 °F 26 °F 9 °F (1982)
Degree Days  
Heating Degree Days 18    
Moisture  
Dew Point 25 °F    
Average Humidity 46    
Maximum Humidity 60    
Minimum Humidity 33    
Precipitation  
Precipitation 0.00 in - - ()
Sea Level Pressure  
Sea Level Pressure 29.84 in    
Wind  
Wind Speed 7 mph (WNW)    
Max Wind Speed 14 mph    
Max Gust Speed 21 mph    
Visibility 10 miles    
Events      
Averages and records for this station are not official NWS values.
T = Trace of Precipitation, MM = Missing Value Source: NWS Daily Summary

Daily Weather History Graph

Daily Weather History Graph

Search for Another Location

Airport or City:

Trip Planner

Search our weather history database for the weather conditions in past years. The results will help you decide how hot, cold, wet, or windy it might be!

Date:

Astronomy

Jan. 27, 2014 Rise Set
Actual Time 7:29 AM EST 5:47 PM EST
Civil Twilight 7:02 AM EST 6:14 PM EST
Nautical Twilight 6:31 AM EST 6:45 PM EST
Astronomical Twilight 6:01 AM EST 7:15 PM EST
Moon 4:07 AM EST (1/27) 2:33 PM EST (1/27)
Length of Visible Light 11h 12m
Length of Day
10h 18m
Waning Crescent, 15% of the Moon is Illuminated
Jan 27
Waning Crescent
Jan 30
New
Feb 6
First Quarter
Feb 14
Full
Feb 22
Last Quarter

Hourly Weather History & Observations

Time (EST) Temp. Windchill Dew Point Humidity Pressure Visibility Wind Dir Wind Speed Gust Speed Precip Events Conditions
12:53 AM 46.0 °F 40.6 °F 26.1 °F 46% 29.77 in 10.0 mi SSW 11.5 mph - N/A   Clear
1:53 AM 41.0 °F 36.4 °F 26.1 °F 55% 29.79 in 10.0 mi West 6.9 mph - N/A   Partly Cloudy
2:53 AM 39.9 °F - 25.0 °F 55% 29.79 in 10.0 mi Calm Calm - N/A   Mostly Cloudy
3:53 AM 44.1 °F 40.1 °F 26.1 °F 49% 29.78 in 10.0 mi South 6.9 mph - N/A   Mostly Cloudy
4:53 AM 43.0 °F 40.3 °F 26.1 °F 51% 29.77 in 10.0 mi South 4.6 mph - N/A   Mostly Cloudy
5:53 AM 42.1 °F 39.2 °F 26.1 °F 53% 29.79 in 10.0 mi NW 4.6 mph - N/A   Overcast
6:53 AM 39.9 °F - 26.1 °F 58% 29.80 in 10.0 mi Calm Calm - N/A   Partly Cloudy
7:53 AM 39.0 °F 35.7 °F 26.1 °F 60% 29.81 in 10.0 mi South 4.6 mph - N/A   Partly Cloudy
8:53 AM 39.9 °F - 27.0 °F 60% 29.82 in 10.0 mi Calm Calm - N/A   Clear
9:53 AM 51.1 °F - 28.9 °F 43% 29.81 in 10.0 mi West 3.5 mph - N/A   Clear
10:53 AM 57.0 °F - 30.9 °F 37% 29.80 in 10.0 mi West 5.8 mph - N/A   Overcast
11:53 AM 55.9 °F - 32.0 °F 40% 29.81 in 10.0 mi WNW 10.4 mph - N/A   Overcast
12:53 PM 59.0 °F - 33.1 °F 38% 29.78 in 10.0 mi NW 8.1 mph - N/A   Scattered Clouds
1:53 PM 57.9 °F - 30.9 °F 36% 29.78 in 10.0 mi WNW 11.5 mph 19.6 mph N/A   Scattered Clouds
2:53 PM 57.0 °F - 30.0 °F 36% 29.78 in 10.0 mi NW 13.8 mph 20.7 mph N/A   Clear
3:53 PM 55.9 °F - 28.0 °F 34% 29.81 in 10.0 mi NW 12.7 mph 19.6 mph N/A   Clear
4:53 PM 54.0 °F - 25.0 °F 33% 29.83 in 10.0 mi NW 10.4 mph - N/A   Clear
5:53 PM 48.0 °F - 27.0 °F 44% 29.86 in 10.0 mi NW 9.2 mph - N/A   Clear
6:53 PM 43.0 °F 38.8 °F 26.1 °F 51% 29.90 in 10.0 mi NNW 6.9 mph - N/A   Clear
7:53 PM 39.9 °F 35.8 °F 24.1 °F 53% 29.93 in 10.0 mi NNW 5.8 mph - N/A   Clear
8:53 PM 37.9 °F 32.7 °F 21.9 °F 53% 29.96 in 10.0 mi North 6.9 mph - N/A   Clear
9:53 PM 36.0 °F 28.0 °F 15.1 °F 43% 29.97 in 10.0 mi NNW 11.5 mph 17.3 mph N/A   Clear
10:53 PM 35.1 °F 27.9 °F 10.9 °F 37% 30.00 in 10.0 mi NNW 9.2 mph 19.6 mph N/A   Clear
11:53 PM 33.1 °F 26.1 °F 7.0 °F 34% 30.02 in 10.0 mi NNW 8.1 mph - N/A   Clear